Temp
14 14 13 13 13 13 13 13 13 13 13 13 13 13 13 13 13 13 13 13 13 13 12 11 11 11 11 10 11 11 11 11 11 10 9 9 8 7 6 6 5 5 5
14 14 14 14 14 14 14 14 13 13 13 13 13 13 12 12 12 13 13 13 13 13 12 12 11 11 11 11 11 10 10 10 11 10 10 9 8 7 6 6 5 5 5
14 14 14 14 14 14 13 13 13 13 13 13 13 13 12 12 12 12 12 12 12 12 12 12 12 12 11 11 10 10 10 10 10 11 10 8 8 7 6 5 5 5 4
14 14 14 14 14 14 14 13 13 13 13 13 13 13 12 12 12 12 12 12 12 12 11 12 12 12 11 10 10 10 10 10 10 10 9 8 7 7 6 5 5 5 5
14 14 14 14 13 13 14 13 13 13 13 13 12 12 13 12 12 12 12 13 12 11 11 11 11 11 11 10 10 10 10 9 10 10 9 8 8 7 6 5 4 5 4
14 14 14 13 14 13 13 13 14 13 13 13 12 12 13 13 13 13 13 13 13 12 12 11 11 11 11 10 10 9 9 9 9 10 10 8 7 6 5 5 5 5 5
13 14 14 14 13 14 13 13 13 13 13 13 13 13 13 13 13 13 13 13 13 13 12 12 12 11 11 10 10 9 9 9 9 9 10 8 8 7 6 5 5 4 4
9 9 11 13 11 12 12 12 12 12 13 13 13 13 12 12 12 12 12 12 12 13 13 12 12 11 11 10 9 9 8 9 9 9 10 9 8 7 6 5 5 5 5
9 10 10 11 11 11 12 12 11 11 11 11 11 11 11 11 11 11 11 11 11 12 12 13 12 12 11 10 9 9 9 8 9 9 10 9 8 8 7 5 5 5 5
9 9 10 10 11 11 11 12 12 11 10 10 10 10 10 10 10 10 10 10 10 11 11 12 12 11 11 10 9 9 9 8 8 9 9 10 8 8 7 6 5 4 5
9 10 10 10 10 10 10 11 10 10 10 11 11 10 10 11 11 11 11 11 11 11 11 12 11 11 10 11 10 8 9 9 8 9 9 10 9 8 7 7 5 5 5
9 9 9 10 10 10 10 10 10 10 10 11 11 11 11 11 10 10 10 10 11 11 11 11 11 11 10 10 10 9 9 8 8 9 9 10 9 8 8 7 6 6 5
9 9 9 9 9 9 9 9 9 9 10 10 10 10 10 10 9 9 9 10 10 10 11 11 11 11 10 8 9 8 8 8 8 9 9 10 9 8 9 7 7 6 5
9 9 9 9 9 9 8 9 9 9 8 8 8 8 8 7 7 5 4 5 8 10 10 10 10 10 9 8 8 9 8 8 8 8 8 9 10 10 8 8 7 6 6
8 8 8 8 8 8 8 7 8 8 7 7 7 6 6 5 3 4 4 6 7 7 8 8 8 9 9 8 8 8 9 8 8 8 8 8 10 10 8 8 7 7 6
8 7 7 7 7 7 7 7 6 5 6 6 6 6 7 6 5 5 5 5 5 6 6 7 7 7 7 7 6 7 8 7 7 7 7 8 9 10 8 8 8 7 6
7 6 6 6 6 7 7 6 5 3 2 1 3 5 5 4 4 4 5 5 5 5 5 6 6 6 6 5 6 6 7 7 7 7 7 8 8 9 9 8 7 7 7
5 5 5 5 5 5 5 4 1 1 1 1 1 1 1 1 2 3 4 5 4 4 5 5 5 5 5 5 6 6 7 7 7 7 7 8 8 9 9 8 7 7 6
5 4 4 4 4 4 4 3 2 1 1 1 1 1 0 0 0 1 2 4 4 4 4 4 5 5 5 5 5 5 7 6 6 6 7 7 8 9 9 8 7 7 7
4 4 3 3 3 3 3 2 1 1 1 1 1 1 1 1 1 1 2 3 3 3 3 3 2 2 5 5 5 6 5 6 6 6 6 7 7 8 9 8 7 7 7
3 3 3 3 2 2 2 1 1 1 1 1 2 1 1 0 1 1 3 1 2 2 3 3 3 2 2 4 5 6 6 6 6 6 6 6 7 8 9 8 6 6 6
3 2 2 2 2 2 1 1 1 1 1 1 1 1 1 0 0 1 1 1 1 1 1 3 3 4 3 4 4 5 6 6 6 6 6 5 6 7 8 8 7 6 5
1 1 1 1 1 1 1 1 1 1 1 1 1 1 1 1 1 1 1 -0 2 1 2 3 3 3 3 4 4 4 5 6 6 5 5 5 6 6 7 8 7 7 5
-1 1 0 0 0 0 0 0 0 1 0 1 1 1 1 1 1 0 0 0 1 1 2 3 3 3 3 4 4 4 5 5 6 6 5 5 5 6 7 7 6 6 5
-1 -0 0 -0 0 0 0 -0 0 0 1 1 1 1 1 1 1 1 1 1 1 2 3 3 3 3 3 4 4 4 5 5 6 5 5 5 5 6 6 6 5 5 5
-1 -1 -0 -1 -0 -0 -0 0 -0 0 0 1 1 1 1 1 1 1 1 1 1 2 2 2 2 3 3 4 4 4 4 5 5 5 5 5 5 5 5 5 5 5 5
Height
3204 3205 3205 3206 3207 3207 3208 3208 3208 3208 3208 3208 3208 3208 3207 3206 3205 3204 3202 3201 3199 3197 3195 3193 3192 3189 3187 3184 3181 3177 3172 3167 3163 3158 3154 3149 3144 3139 3133 3130 3127 3124 3124
3201 3202 3203 3204 3205 3205 3206 3206 3206 3206 3206 3206 3205 3205 3205 3204 3203 3202 3200 3198 3197 3195 3193 3190 3188 3185 3184 3182 3178 3174 3169 3164 3160 3155 3152 3148 3143 3137 3133 3129 3126 3124 3122
3198 3200 3200 3201 3202 3203 3203 3203 3203 3203 3203 3203 3202 3202 3202 3201 3199 3198 3197 3196 3193 3191 3189 3186 3184 3182 3180 3178 3175 3171 3168 3164 3158 3152 3148 3144 3140 3136 3132 3128 3125 3123 3122
3195 3196 3196 3196 3196 3197 3198 3198 3198 3199 3200 3199 3199 3198 3198 3196 3195 3194 3192 3191 3189 3187 3184 3182 3180 3179 3176 3173 3172 3169 3165 3161 3156 3150 3146 3143 3138 3135 3130 3127 3123 3123 3120
3189 3190 3192 3192 3193 3194 3195 3194 3194 3194 3194 3195 3195 3194 3193 3191 3190 3189 3187 3184 3183 3181 3179 3177 3174 3172 3172 3170 3166 3166 3163 3159 3154 3149 3144 3141 3137 3134 3130 3127 3123 3120 3120
3181 3181 3182 3188 3186 3187 3189 3189 3187 3188 3189 3189 3189 3188 3187 3187 3184 3183 3181 3178 3176 3175 3173 3171 3169 3167 3166 3165 3163 3160 3160 3156 3153 3147 3144 3140 3137 3134 3130 3128 3124 3120 3120
3174 3178 3179 3180 3182 3182 3183 3184 3183 3183 3183 3183 3183 3182 3181 3180 3179 3178 3176 3174 3171 3168 3167 3165 3163 3160 3159 3158 3157 3156 3155 3153 3150 3146 3143 3139 3137 3134 3130 3127 3125 3122 3120
3174 3175 3173 3174 3177 3177 3176 3178 3178 3177 3177 3177 3175 3174 3174 3174 3173 3171 3170 3168 3166 3162 3160 3159 3157 3154 3153 3153 3152 3150 3149 3148 3146 3144 3141 3138 3136 3133 3129 3127 3125 3123 3122
3175 3172 3168 3168 3171 3172 3171 3172 3172 3172 3170 3169 3167 3166 3166 3166 3164 3163 3162 3160 3158 3155 3153 3151 3149 3147 3145 3148 3143 3144 3143 3141 3141 3140 3138 3136 3135 3132 3128 3125 3125 3123 3122
3168 3166 3163 3162 3163 3162 3162 3161 3160 3159 3158 3157 3155 3155 3155 3153 3154 3152 3151 3149 3147 3145 3144 3143 3138 3137 3137 3140 3136 3136 3136 3135 3135 3135 3134 3132 3132 3130 3127 3124 3123 3123 3123
3156 3154 3153 3151 3151 3151 3149 3148 3147 3147 3146 3144 3143 3142 3141 3140 3139 3138 3138 3137 3133 3132 3131 3131 3129 3126 3128 3129 3130 3128 3131 3129 3129 3129 3129 3129 3129 3129 3126 3124 3122 3123 3123
3145 3144 3143 3142 3141 3139 3137 3136 3134 3132 3131 3129 3127 3126 3125 3124 3123 3120 3122 3122 3119 3117 3117 3118 3116 3115 3116 3120 3120 3120 3122 3122 3122 3122 3124 3124 3125 3126 3125 3123 3122 3122 3122
3136 3134 3131 3129 3127 3126 3123 3120 3118 3117 3115 3114 3112 3110 3109 3108 3106 3104 3101 3103 3104 3104 3104 3104 3105 3104 3104 3107 3111 3113 3113 3115 3116 3117 3118 3120 3122 3121 3122 3121 3121 3120 3122
3123 3120 3117 3114 3112 3109 3107 3105 3102 3101 3099 3097 3096 3095 3094 3094 3094 3093 3092 3086 3087 3090 3090 3090 3092 3093 3094 3095 3100 3104 3105 3108 3110 3112 3114 3115 3117 3117 3117 3118 3119 3119 3120
3112 3109 3104 3100 3096 3093 3090 3088 3086 3086 3084 3082 3082 3081 3080 3081 3083 3079 3080 3078 3077 3076 3078 3078 3079 3081 3082 3085 3089 3093 3097 3099 3103 3106 3108 3109 3111 3112 3113 3115 3116 3117 3118
3100 3097 3093 3089 3085 3080 3075 3071 3069 3066 3066 3066 3066 3065 3065 3065 3065 3066 3068 3067 3066 3066 3066 3066 3067 3071 3072 3074 3080 3083 3087 3091 3094 3097 3101 3104 3105 3107 3109 3110 3112 3114 3115
3087 3083 3079 3074 3069 3063 3058 3053 3049 3049 3048 3049 3049 3050 3050 3050 3051 3051 3053 3053 3054 3054 3054 3055 3056 3060 3063 3066 3069 3073 3077 3081 3086 3090 3093 3097 3099 3102 3103 3105 3107 3109 3111
3077 3072 3067 3062 3057 3052 3047 3042 3039 3038 3037 3038 3039 3041 3040 3039 3039 3040 3040 3040 3041 3043 3043 3044 3046 3049 3053 3057 3059 3063 3068 3072 3077 3081 3086 3088 3092 3096 3097 3099 3102 3105 3107
3066 3061 3057 3052 3048 3044 3039 3035 3033 3031 3030 3030 3030 3030 3031 3032 3031 3029 3029 3029 3031 3032 3033 3033 3035 3039 3044 3049 3053 3055 3059 3063 3069 3073 3077 3080 3084 3088 3091 3093 3096 3099 3103
3056 3052 3047 3043 3040 3036 3032 3028 3025 3025 3023 3022 3021 3022 3023 3021 3020 3020 3019 3021 3022 3022 3024 3025 3027 3028 3032 3037 3043 3047 3047 3048 3056 3064 3068 3073 3076 3080 3084 3087 3090 3092 3096
3047 3044 3040 3036 3032 3028 3025 3022 3020 3017 3015 3013 3011 3011 3011 3012 3010 3010 3012 3011 3012 3014 3016 3016 3017 3020 3022 3024 3029 3034 3040 3043 3047 3054 3058 3064 3068 3071 3077 3081 3083 3087 3090
3039 3036 3033 3029 3025 3022 3019 3015 3012 3009 3006 3003 3001 2999 2998 2998 2999 3001 3004 3004 3007 3008 3008 3007 3007 3009 3011 3013 3017 3022 3029 3035 3041 3045 3050 3055 3060 3064 3068 3073 3076 3080 3083
3032 3028 3026 3023 3019 3016 3013 3010 3006 3002 2999 2996 2994 2991 2990 2989 2989 2989 2992 2994 2995 2995 2997 2997 2997 2998 3001 3004 3007 3011 3016 3024 3032 3037 3042 3047 3051 3056 3060 3065 3069 3073 3077
3026 3022 3019 3017 3014 3010 3007 3003 2999 2996 2992 2988 2985 2983 2982 2981 2981 2980 2981 2983 2984 2986 2986 2986 2986 2987 2990 2993 2995 3000 3005 3012 3021 3026 3032 3037 3043 3048 3052 3057 3062 3067 3069
3020 3016 3013 3010 3007 3004 3000 2996 2992 2988 2984 2980 2977 2974 2974 2974 2974 2974 2973 2974 2976 2975 2975 2975 2976 2977 2979 2982 2986 2990 2995 3001 3009 3017 3022 3028 3035 3040 3044 3050 3054 3059 3063
3012 3010 3007 3004 3001 2998 2994 2990 2986 2981 2976 2971 2968 2966 2965 2965 2966 2966 2966 2966 2966 2965 2965 2965 2966 2968 2970 2973 2974 2981 2987 2994 3001 3006 3015 3020 3026 3031 3038 3043 3048 3052 3057
Wind_Speed
12 12 11 10 10 9 8 7 7 7 6 6 7 7 8 10 12 14 14 16 15 16 16 18 18 19 21 24 25 23 24 26 29 25 23 24 24 20 17 14 11 8 8
17 15 14 14 13 11 8 9 11 11 11 11 11 12 12 13 13 14 16 18 18 18 20 20 20 21 21 21 22 22 23 24 26 27 23 22 23 19 16 14 9 7 8
20 19 19 18 16 15 14 14 16 19 18 17 16 16 17 17 16 16 17 20 21 22 23 25 24 23 22 23 24 27 24 23 25 27 24 23 22 18 16 14 9 7 7
24 24 24 23 22 23 23 23 19 22 25 24 23 23 24 24 24 23 23 27 27 27 25 27 29 27 27 23 24 25 27 25 25 25 24 21 20 18 16 14 11 8 7
29 28 27 27 27 28 29 28 29 31 29 30 30 27 28 29 28 25 21 23 27 28 31 32 32 29 30 27 28 23 24 24 28 26 25 21 20 18 14 12 14 12 7
36 34 33 32 30 29 30 27 25 25 27 26 26 26 24 23 25 24 23 25 27 29 32 34 33 33 32 27 30 29 21 25 24 23 26 20 18 17 13 10 12 11 7
33 32 34 31 29 29 29 28 27 26 24 24 25 24 22 22 23 23 25 25 28 32 32 34 35 36 33 28 29 26 21 22 18 21 23 20 17 17 12 8 8 7 8
16 17 23 31 21 20 18 19 21 22 24 26 26 27 26 27 27 27 29 30 30 32 36 38 36 36 35 32 32 30 24 20 18 19 21 19 15 16 12 5 5 6 4
22 18 14 15 18 20 22 26 30 33 32 34 35 35 35 34 34 33 35 37 37 38 38 43 42 38 36 31 35 31 24 25 18 18 19 18 14 16 12 6 3 2 2
26 28 26 32 36 41 46 51 52 47 43 43 43 44 44 45 43 44 45 45 45 45 43 42 46 44 37 30 36 32 26 28 25 19 18 18 14 13 11 7 4 1 3
30 31 33 35 37 40 41 42 44 47 49 51 52 52 52 53 53 53 52 52 52 50 47 44 44 49 41 34 33 33 31 29 22 22 18 18 15 12 11 6 3 3 1
38 41 43 45 48 49 51 52 52 53 54 55 56 56 56 54 52 52 47 43 46 46 44 43 44 48 48 36 35 34 32 28 24 19 18 18 16 12 11 5 3 4 4
44 44 45 46 46 46 48 50 52 52 54 53 54 55 54 53 51 51 51 50 46 44 44 43 43 48 49 37 34 32 30 27 23 19 20 19 17 15 10 6 6 6 6
44 46 47 49 50 51 52 53 54 54 54 52 50 48 46 46 42 38 34 39 43 41 43 45 44 47 48 44 37 35 30 30 24 19 20 21 21 15 11 10 8 8 9
41 43 44 46 48 50 51 51 51 49 48 48 46 46 45 42 31 36 40 44 44 43 41 42 42 45 46 43 38 34 32 30 27 22 22 22 24 17 16 13 12 12 10
41 44 45 45 47 49 50 51 50 51 50 47 46 46 46 44 44 44 44 44 46 45 43 44 43 40 41 40 31 31 30 33 29 25 26 25 26 22 19 18 16 15 14
40 41 42 43 42 43 43 44 47 47 41 37 39 40 37 39 40 42 44 45 44 44 43 42 42 39 36 31 26 28 36 27 28 31 31 28 27 28 24 22 20 17 15
38 40 40 38 36 35 35 33 32 29 31 32 26 26 28 29 34 39 43 43 41 38 40 40 38 35 32 29 27 31 30 30 28 31 33 31 29 30 29 24 23 20 19
39 38 35 35 33 32 28 24 23 25 28 30 27 28 24 27 32 35 38 40 38 37 36 36 36 33 30 36 32 29 29 32 31 29 34 30 30 32 31 27 25 22 21
33 31 32 32 32 29 28 26 25 26 26 29 32 30 24 30 29 33 33 35 34 34 33 33 29 31 31 31 41 44 40 44 35 32 33 34 33 33 32 30 27 26 22
29 29 29 29 28 28 27 24 28 31 33 37 38 37 36 33 37 38 25 32 29 21 23 32 30 27 29 30 33 41 42 35 35 33 33 36 35 35 33 32 31 29 23
29 28 27 25 23 24 24 24 24 25 26 25 26 28 27 30 34 40 36 29 25 26 32 30 29 29 31 30 30 31 45 45 34 32 33 35 34 34 34 33 33 31 25
24 24 24 22 22 22 24 24 24 26 27 27 27 27 25 25 27 28 31 28 29 35 25 30 31 32 31 31 33 34 35 35 36 37 35 36 36 35 34 34 33 30 26
23 20 21 22 25 24 27 28 29 29 29 26 28 28 24 21 21 24 26 27 29 27 30 33 33 33 32 33 35 38 37 35 38 36 36 38 38 36 35 34 32 30 32
27 24 27 25 24 25 23 26 22 26 30 29 29 27 27 24 25 24 26 27 28 31 34 34 34 32 31 33 36 38 38 38 39 40 36 37 38 35 36 33 36 36 36
25 23 19 20 21 23 23 24 26 27 27 24 24 24 24 26 25 26 29 29 30 30 29 29 30 30 24 32 28 36 36 34 35 40 40 40 38 36 33 33 32 31 31
Wind_Direction
222 220 218 215 217 219 222 233 245 259 273 283 296 305 314 319 321 330 332 325 318 307 303 304 310 315 323 336 344 346 338 341 338 340 336 335 338 341 339 330 326 309 308
226 227 226 224 220 223 234 262 265 269 273 279 284 288 290 295 303 316 322 323 322 313 308 306 308 312 318 326 333 341 338 335 336 337 334 335 342 344 343 336 331 301 297
231 229 230 232 235 236 243 258 274 275 274 275 282 288 290 294 298 302 307 313 306 307 303 305 307 312 312 316 325 330 337 334 333 334 338 336 341 342 346 340 338 315 309
235 235 235 237 240 242 245 249 267 282 268 271 276 283 288 289 293 294 299 302 301 300 300 297 296 302 303 305 312 325 330 335 336 331 331 334 337 340 346 343 345 314 335
233 238 240 245 251 255 258 264 268 273 271 269 276 277 282 288 290 292 298 303 304 303 301 293 297 298 296 294 305 316 324 333 332 330 328 330 337 338 344 350 332 338 2
233 233 234 243 251 255 259 259 266 270 269 270 269 271 275 282 287 294 301 307 312 313 304 300 296 294 294 295 295 303 320 325 325 328 325 326 332 328 335 339 342 327 8
237 245 250 253 253 254 260 259 260 256 256 260 262 268 273 277 283 290 296 302 308 313 312 306 298 295 294 292 293 296 304 319 322 326 323 318 326 324 330 333 341 329 334
266 263 258 258 263 261 255 259 260 261 262 263 264 266 270 273 276 280 286 292 296 302 307 307 300 290 287 284 289 290 293 306 308 318 318 313 317 318 322 323 336 338 333
260 258 260 259 259 266 271 275 280 280 277 276 275 273 272 273 275 276 279 284 290 295 299 302 297 291 287 281 282 285 287 285 302 304 307 308 308 311 319 314 327 324 322
271 271 264 266 263 273 277 279 279 279 278 275 274 274 275 277 277 279 281 283 284 287 289 292 290 289 282 279 280 282 280 281 288 293 290 297 292 298 308 315 305 149 161
282 284 284 284 283 281 278 277 277 277 277 277 277 277 277 278 280 278 278 279 280 281 283 281 278 281 281 277 276 278 278 274 275 289 271 281 280 281 289 302 265 202 207
291 291 290 287 285 284 283 281 281 280 280 280 280 281 282 281 280 279 277 275 276 278 278 276 272 272 277 272 272 277 280 263 273 275 258 268 271 265 275 277 242 217 174
290 289 289 288 287 286 285 284 283 283 283 283 283 283 283 284 285 286 286 283 276 274 273 271 267 267 274 268 266 276 278 263 264 255 257 261 260 255 251 240 239 179 200
293 294 293 292 291 289 287 286 285 285 284 284 284 284 284 284 284 282 282 281 281 271 267 267 265 261 265 267 258 263 265 274 260 245 254 261 259 252 243 243 231 212 190
294 294 295 295 294 293 290 287 283 281 278 278 277 277 277 273 266 259 264 270 275 277 272 267 270 264 262 262 261 262 266 249 242 242 242 254 257 253 239 229 230 221 202
295 295 294 294 295 293 290 285 280 279 278 272 270 271 273 268 265 267 268 269 271 271 269 268 268 268 263 260 254 264 250 250 233 229 236 243 249 250 234 234 228 229 217
298 299 301 302 302 302 299 293 285 275 264 277 280 270 267 266 262 260 262 264 265 265 265 265 270 270 270 254 258 254 243 252 249 233 230 235 241 247 238 231 222 227 226
299 302 303 302 306 309 304 301 297 288 282 275 268 277 277 270 265 263 263 263 264 263 265 267 267 272 272 250 259 245 243 232 231 234 234 233 230 238 239 232 225 216 221
300 301 301 304 304 304 307 300 295 290 281 280 277 270 264 273 280 274 266 261 262 263 267 267 264 267 266 247 237 239 236 240 236 233 229 232 229 233 236 233 229 221 214
301 303 304 302 301 303 304 302 300 293 284 279 276 276 269 258 260 274 278 261 263 265 266 265 262 270 265 256 237 237 232 230 225 235 234 227 230 232 233 230 226 229 218
300 304 303 302 302 302 302 297 287 280 279 279 281 276 271 258 247 250 249 264 268 259 262 267 259 258 256 261 246 240 241 240 239 232 232 226 228 229 231 227 225 227 226
304 300 300 301 305 303 300 301 301 298 296 293 288 284 274 264 254 254 247 264 262 262 260 269 265 251 251 247 240 230 228 237 234 228 228 226 225 227 229 228 226 225 224
310 304 299 301 306 306 303 302 303 302 297 293 290 287 280 272 260 259 250 248 245 257 260 260 256 245 244 243 233 227 221 228 227 229 231 224 224 225 225 226 225 226 215
302 296 292 295 307 303 302 297 297 303 300 293 299 282 276 269 262 259 258 258 258 261 257 254 247 245 245 240 230 226 216 214 222 220 227 222 221 224 222 223 219 208 217
288 291 290 299 302 305 301 308 300 299 294 291 291 285 264 265 264 260 262 261 260 258 258 253 250 248 245 241 235 221 210 206 211 218 216 222 220 223 225 220 217 216 221
288 295 297 297 304 305 309 302 304 304 311 302 294 278 267 261 257 272 274 262 262 264 258 256 253 247 238 222 215 208 206 207 197 194 207 222 219 221 222 224 219 218 223